EN

Hourly Weather Laguszew

Today, 25 July, Sunday

Time Temperature Precipitation Wind Pressure Humidity
00:00 +20°C° 0 mm 3 mps 752 mmHg 66%
01:00 +21°C° 0 mm 3 mps 752 mmHg 64%
02:00 +20°C° 0 mm 3 mps 752 mmHg 68%
03:00 +20°C° 0 mm 3 mps 752 mmHg 71%
04:00 +19°C° 0 mm 2 mps 752 mmHg 75%
05:00 +20°C° 0 mm 3 mps 752 mmHg 73%
06:00 +21°C° 0 mm 3 mps 752 mmHg 70%
07:00 +22°C° 0 mm 3 mps 752 mmHg 68%
08:00 +25°C° 0 mm 3 mps 752 mmHg 63%
09:00 +26°C° 0 mm 3 mps 752 mmHg 57%
10:00 +28°C° 0 mm 3 mps 752 mmHg 51%
11:00 +28°C° 0 mm 3 mps 752 mmHg 49%
12:00 +29°C° 0 mm 4 mps 752 mmHg 46%
13:00 +30°C° 0 mm 4 mps 752 mmHg 44%
14:00 +30°C° 0 mm 4 mps 752 mmHg 44%
15:00 +30°C° 0 mm 3 mps 751 mmHg 44%
16:00 +30°C° 0 mm 3 mps 751 mmHg 44%
17:00 +28°C° 0 mm 3 mps 751 mmHg 52%
18:00 +26°C° 0 mm 3 mps 752 mmHg 60%
19:00 +24°C° 0 mm 2 mps 752 mmHg 68%
20:00 +24°C° 0 mm 2 mps 752 mmHg 69%
21:00 +23°C° 0 mm 2 mps 752 mmHg 70%
22:00 +23°C° 0 mm 1 mps 752 mmHg 71%
23:00 +23°C° 0.1 mm 2 mps 752 mmHg 70%

Tomorrow, 26 July, Monday

Time Temperature Precipitation Wind Pressure Humidity
00:00 +22°C° 0.1 mm 3 mps 752 mmHg 69%
01:00 +22°C° 0.1 mm 4 mps 751 mmHg 69%
02:00 +22°C° 0 mm 5 mps 751 mmHg 67%
03:00 +22°C° 0 mm 5 mps 751 mmHg 65%
04:00 +22°C° 0 mm 5 mps 750 mmHg 63%
05:00 +22°C° 0 mm 5 mps 750 mmHg 64%
06:00 +23°C° 0 mm 5 mps 750 mmHg 64%
07:00 +23°C° 0 mm 5 mps 750 mmHg 65%
08:00 +25°C° 0 mm 5 mps 751 mmHg 63%
09:00 +26°C° 0 mm 5 mps 751 mmHg 61%
10:00 +27°C° 0 mm 5 mps 751 mmHg 59%
11:00 +28°C° 0 mm 5 mps 751 mmHg 56%
12:00 +29°C° 0 mm 5 mps 750 mmHg 53%
13:00 +30°C° 0 mm 5 mps 750 mmHg 50%
14:00 +29°C° 0.3 mm 4 mps 750 mmHg 57%
15:00 +28°C° 0.3 mm 4 mps 750 mmHg 63%
16:00 +26°C° 0.3 mm 4 mps 750 mmHg 69%
17:00 +25°C° 1.5 mm 3 mps 750 mmHg 77%
18:00 +24°C° 1.5 mm 2 mps 750 mmHg 84%
19:00 +22°C° 1.5 mm 1 mps 750 mmHg 91%
20:00 +21°C° 0.2 mm 2 mps 750 mmHg 92%
21:00 +20°C° 0.2 mm 2 mps 750 mmHg 93%
22:00 +20°C° 0.2 mm 2 mps 750 mmHg 94%
23:00 +20°C° 0 mm 2 mps 750 mmHg 94%

Day after tomorrow, 27 July, Tuesday

Time Temperature Precipitation Wind Pressure Humidity
00:00 +20°C° 0 mm 2 mps 750 mmHg 94%
01:00 +19°C° 0 mm 2 mps 750 mmHg 93%
02:00 +19°C° 0 mm 2 mps 750 mmHg 93%
03:00 +19°C° 0 mm 2 mps 750 mmHg 92%
04:00 +19°C° 0 mm 2 mps 750 mmHg 91%
05:00 +20°C° 0 mm 2 mps 750 mmHg 87%
06:00 +21°C° 0 mm 3 mps 750 mmHg 83%
07:00 +22°C° 0 mm 3 mps 751 mmHg 79%
08:00 +24°C° 0.1 mm 3 mps 751 mmHg 77%
09:00 +25°C° 0.1 mm 3 mps 751 mmHg 75%
10:00 +25°C° 0.1 mm 3 mps 751 mmHg 73%
11:00 +24°C° 0.7 mm 3 mps 752 mmHg 77%
12:00 +23°C° 0.7 mm 4 mps 752 mmHg 81%
13:00 +22°C° 0.7 mm 4 mps 752 mmHg 85%
14:00 +25°C° 0.1 mm 3 mps 752 mmHg 75%
15:00 +26°C° 0.1 mm 3 mps 752 mmHg 64%
16:00 +28°C° 0.1 mm 3 mps 752 mmHg 54%
17:00 +27°C° 0 mm 3 mps 752 mmHg 60%
18:00 +25°C° 0 mm 3 mps 752 mmHg 66%
19:00 +23°C° 0 mm 4 mps 752 mmHg 73%
20:00 +22°C° 0.1 mm 3 mps 752 mmHg 75%
21:00 +21°C° 0.1 mm 3 mps 752 mmHg 77%
22:00 +20°C° 0.1 mm 3 mps 752 mmHg 79%
23:00 +20°C° 0 mm 3 mps 752 mmHg 80%

28 July, Wednesday

Time Temperature Precipitation Wind Pressure Humidity
00:00 +20°C° 0 mm 3 mps 752 mmHg 80%
01:00 +20°C° 0 mm 3 mps 752 mmHg 81%
02:00 +19°C° 0.1 mm 3 mps 752 mmHg 83%
03:00 +19°C° 0.1 mm 3 mps 752 mmHg 86%
04:00 +19°C° 0.1 mm 3 mps 752 mmHg 88%
05:00 +20°C° 0 mm 3 mps 752 mmHg 83%
06:00 +22°C° 0 mm 3 mps 752 mmHg 78%
07:00 +24°C° 0 mm 3 mps 752 mmHg 74%
08:00 +26°C° 0 mm 3 mps 752 mmHg 67%
09:00 +27°C° 0 mm 3 mps 752 mmHg 61%
10:00 +29°C° 0 mm 3 mps 752 mmHg 55%
11:00 +30°C° 0 mm 3 mps 752 mmHg 50%
12:00 +31°C° 0 mm 3 mps 752 mmHg 44%
13:00 +31°C° 0 mm 3 mps 751 mmHg 39%
14:00 +31°C° 0 mm 2 mps 751 mmHg 39%
15:00 +31°C° 0 mm 2 mps 751 mmHg 40%
16:00 +31°C° 0 mm 1 mps 751 mmHg 40%
17:00 +30°C° 0 mm 1 mps 751 mmHg 46%
18:00 +28°C° 0 mm 2 mps 751 mmHg 51%
19:00 +27°C° 0 mm 2 mps 751 mmHg 57%
20:00 +25°C° 0.1 mm 3 mps 751 mmHg 64%
21:00 +22°C° 0.1 mm 3 mps 751 mmHg 72%
22:00 +20°C° 0.1 mm 3 mps 751 mmHg 79%
23:00 +19°C° 0 mm 3 mps 752 mmHg 82%

29 July, Thursday

Time Temperature Precipitation Wind Pressure Humidity
00:00 +19°C° 0 mm 3 mps 752 mmHg 86%
01:00 +18°C° 0 mm 3 mps 752 mmHg 89%
02:00 +18°C° 0 mm 3 mps 752 mmHg 90%
03:00 +17°C° 0 mm 3 mps 752 mmHg 92%
04:00 +17°C° 0 mm 2 mps 752 mmHg 93%
05:00 +18°C° 0 mm 2 mps 752 mmHg 87%
06:00 +20°C° 0 mm 2 mps 753 mmHg 82%
07:00 +21°C° 0 mm 2 mps 753 mmHg 76%
08:00 +22°C° 0 mm 3 mps 753 mmHg 69%
09:00 +25°C° 0 mm 3 mps 753 mmHg 63%
10:00 +26°C° 0 mm 3 mps 753 mmHg 56%
11:00 +27°C° 0 mm 3 mps 753 mmHg 51%
12:00 +28°C° 0 mm 3 mps 752 mmHg 47%
13:00 +30°C° 0 mm 3 mps 752 mmHg 42%
14:00 +30°C° 0 mm 3 mps 752 mmHg 41%
15:00 +30°C° 0 mm 3 mps 752 mmHg 41%
16:00 +30°C° 0 mm 3 mps 752 mmHg 41%
17:00 +29°C° 0 mm 2 mps 751 mmHg 46%
18:00 +28°C° 0 mm 2 mps 751 mmHg 51%
19:00 +27°C° 0 mm 1 mps 751 mmHg 57%
20:00 +26°C° 0.2 mm 1 mps 751 mmHg 62%
21:00 +24°C° 0.2 mm 2 mps 751 mmHg 67%
22:00 +22°C° 0.2 mm 3 mps 751 mmHg 72%
23:00 +22°C° 0.8 mm 3 mps 751 mmHg 78%

30 July, Friday

Time Temperature Precipitation Wind Pressure Humidity
00:00 +21°C° 0.8 mm 3 mps 751 mmHg 84%
01:00 +21°C° 0.8 mm 2 mps 751 mmHg 90%
02:00 +21°C° 0.4 mm 2 mps 751 mmHg 91%
03:00 +21°C° 0.4 mm 2 mps 751 mmHg 92%
04:00 +21°C° 0.4 mm 2 mps 751 mmHg 92%
05:00 +21°C° 0 mm 2 mps 751 mmHg 89%
06:00 +23°C° 0 mm 2 mps 752 mmHg 85%
07:00 +24°C° 0 mm 2 mps 752 mmHg 82%
08:00 +25°C° 0 mm 2 mps 752 mmHg 75%
09:00 +26°C° 0 mm 2 mps 751 mmHg 68%
10:00 +28°C° 0 mm 2 mps 751 mmHg 62%
11:00 +28°C° 0 mm 2 mps 751 mmHg 59%
12:00 +28°C° 0 mm 3 mps 751 mmHg 56%
13:00 +29°C° 0 mm 3 mps 751 mmHg 53%
14:00 +29°C° 0 mm 3 mps 750 mmHg 54%
15:00 +29°C° 0 mm 3 mps 750 mmHg 54%
16:00 +28°C° 0 mm 3 mps 750 mmHg 55%
17:00 +27°C° 0.1 mm 2 mps 750 mmHg 59%
18:00 +26°C° 0.1 mm 2 mps 750 mmHg 63%
19:00 +25°C° 0.1 mm 2 mps 749 mmHg 67%
20:00 +24°C° 0.1 mm 2 mps 750 mmHg 69%
21:00 +24°C° 0.1 mm 2 mps 750 mmHg 71%
22:00 +22°C° 0.1 mm 3 mps 750 mmHg 73%
23:00 +21°C° 0 mm 3 mps 750 mmHg 72%
Show more